Tracking 19246 objects as of 20-Aug-2018
HD Live streaming from Space Station
objects crossing your sky now

GLOBALSTAR M084

Track GLOBALSTAR M084 now!
10-day predictions
GLOBALSTAR M084 is classified as:


NORAD ID: 38040
Int'l Code: 2011-080A
Perigee: 1,420.4 km
Apogee: 1,421.1 km
Inclination: 52.0 °
Period: 114.1 minutes
Semi major axis: 7791 km
RCS: 4.8621 m2 (large)
Launch date: December 28, 2011
Source: Globalstar (GLOB)
Launch site: TYURATAM MISSILE AND SPACE COMPLEX (TTMTR)
aabbcc
Your satellite tracking list
Your tracking list is empty




NASA's NSSDC Master Catalog

Two Line Element Set (TLE):
1 38040U 11080A   18231.64049973 -.00000106 +00000-0 -98051-5 0  9999
2 38040 052.0008 079.7737 0000477 050.7527 349.8046 12.62262622307988
Source of the keplerian elements: AFSPC